Location: Newark
(33.2833°N, 8.3333°W)
Time: 10:31:31
(UTC+00:00)

Hubble Space Telescope - Visible Passes

Search period start: 16 September 2019 00:00
Search period end: 26 September 2019 00:00
Orbit: 536 x 540 km, 28.5° (Epoch: 16 September)

Date Brightness Start Highest point End Pass type
(mag) Time Alt. Az. Time Alt. Az. Time Alt. Az.
16 Sep 3.7 03:39:49 12° ESE 03:39:49 12° ESE 03:40:08 10° ESE visible
16 Sep 1.4 05:15:09 21° WSW 05:17:28 42° S 05:21:23 10° ESE visible
17 Sep 1.4 05:05:15 28° SW 05:06:53 42° S 05:10:48 10° ESE visible
18 Sep 1.4 04:55:21 35° SW 04:56:17 42° S 05:00:12 10° ESE visible
19 Sep 1.4 04:45:30 40° SSW 04:45:42 40° S 04:49:35 10° ESE visible
20 Sep 1.7 04:35:41 35° SSE 04:35:41 35° SSE 04:38:56 10° ESE visible
21 Sep 2.3 04:25:55 26° SSE 04:25:55 26° SSE 04:28:15 10° SE visible
22 Sep 3.0 04:16:14 18° SE 04:16:14 18° SE 04:17:32 10° SE visible
22 Sep 2.9 05:52:47 10° SW 05:54:33 12° SSW 05:56:20 10° S visible
23 Sep 3.6 04:06:37 11° SE 04:06:37 11° SE 04:06:46 10° SE visible
